Regional Weather Roundup
Issued by NWS Cleveland, OH

Home | Current Version | Previous Version | Graphics & Text | Print | Product List | Glossary On
Versions: 1 2 3 4 5 6 7 8 9 10 11 12 13 14 15 16 17 18 19 20 21 22 23 24 25 26 27 28 29 30 31 32 33 34 35 36 37 38 39 40 41 42 43 44 45 46 47 48 49 50
000
ASUS41 KCLE 012200
RWRCLE
OHIO REGIONAL WEATHER ROUNDUP
NATIONAL WEATHER SERVICE WILMINGTON, OH
600 PM EDT TUE SEP 01 2015

NOTE: "FAIR" INDICATES FEW OR NO CLOUDS BELOW 12,000 FEET WITH NO
SIGNIFICANT WEATHER AND/OR OBSTRUCTIONS TO VISIBILITY.

OHZ001>008-015>018-024>027-034-035-043-044-012300-
   NORTHWEST OHIO

CITY           SKY/WX    TMP DP  RH WIND       PRES   REMARKS
DEFIANCE       MOSUNNY   88  66  48 SW8       30.04F HX  90
FINDLAY        SUNNY     86  68  54 SW7       30.05S
TOLEDO EXPRESS SUNNY     86  67  52 S6        30.04S
TOLEDO EXEC    MOSUNNY   88  65  46 W9        30.04F HX  90
LIMA           PTSUNNY   79  65  62 S10       30.08R
$$

OHZ009>014-019>023-028>033-038-089-012300-
   NORTHEAST OHIO

CITY           SKY/WX    TMP DP  RH WIND       PRES   REMARKS
CLE-HOPKINS    MOSUNNY   84  68  58 N9        30.07F THUNDER
CLE-LAKEFRONT  SUNNY     81  70  69 NE6       30.04F
CUY CO. ARPT   MOSUNNY   86  68  54 N12       30.07F
LORAIN-ELYRIA  MOSUNNY   84  69  60 NW6       30.06F
ASHTABULA      MOSUNNY   82  67  60 VRB5      30.08F
AKRON-CANTON   PTSUNNY   86  66  51 W9        30.07F
WOOSTER        NOT AVBL
MANSFIELD      MOSUNNY   84  66  54 E6        30.09F
YOUNGSTOWN     MOSUNNY   87  63  44 N3        30.07F
$$

OHZ042-051>053-060>062-070>072-077>081-012300-
  SOUTHWEST OHIO

CITY           SKY/WX    TMP DP  RH WIND       PRES   REMARKS
CINC-COVINGTON PTSUNNY   86  64  47 SW3       30.09F
CINC-LUNKEN    MOSUNNY   86  68  54 SW5       30.07F
HAMILTON       MOSUNNY   87  67  51 W7        30.08F HX  90
DAYTON         NOT AVBL
WRIGHT-PAT AFB NOT AVBL
DAYTON GENERAL TSTM      73  64  73 N18G25    30.10R
WILMINGTON     MOSUNNY   85  66  53 SW7       30.09F
$$

OHZ036-037-039>041-045>050-054>059-063>069-073>076-082>088-012300-
  CENTRAL AND SOUTHEAST OHIO

CITY           SKY/WX    TMP DP  RH WIND       PRES   REMARKS
COLUMBUS       PTSUNNY   86  64  47 SW6       30.06F
OSU AIRPORT    PTSUNNY   85  66  53 W8        30.08S
BOLTON FIELD   SUNNY     84  68  58 W5        30.08F
RICKENBACK AFB NOT AVBL
NEWARK         PTSUNNY   85  67  54 W6        30.07F
MARION         MOSUNNY   86  64  47 W7        30.08S
LANCASTER      PTSUNNY   82  68  62 W5        30.08F
ZANESVILLE     PTSUNNY   79  67  66 W6        30.08S
NEW PHILLY     MOSUNNY   87  67  51 SW5       30.07F HX  90
$$



USA.gov is the U.S. government's official web portal to all federal, state and local government web resources and services.